Home > Weather > New York > Past weeks

Flag for USA Past 2 weeks in New York, New York, USA

Now
75 °F

Clear.


Feels Like: 77 °F
Forecast: 62 / 80 °F
Wind: 5 mph from WSW

Location: New York City - Central Park


UV Index: 0 (Low)

Visibility: 10 mi


Pressure: 30.04 "Hg

Humidity: 30%

Dew point: 41 °F

Location of New York

Historic Weather in New York

°F

Past Weeks' High & Low Weather Summary

 TemperatureHumidityPressure
High85 °F (Apr 16, 1:51 PM)100% (Apr 25, 9:01 PM)30.54 "Hg (Apr 25, 9:01 PM)
Low45 °F (Apr 19, 5:51 AM)19% (Apr 17, 3:51 PM)29.75 "Hg (Apr 26, 5:51 AM)
Average57 °F72%30.06 "Hg
* Reported Apr 13 9:51 PM — Apr 28 9:51 PM, New York, Weather by CustomWeather, © 2014

Note: Actual official high and low records may vary slightly from our data, if they occured in-between our weather recording intervals... More about our weather records

Advertising

Historic Weather Conditions — Data for Previous 24 hours

 ConditionsComfort  
Time TempWeatherWind HumidityBarometerVisibility
9:51 PM
Apr 28
76 °FClear.5 mph29%30.04 "Hg10 mi
8:51 PM77 °FClear.3 mph28%30.01 "Hg10 mi
7:51 PM77 °FClear.5 mph33%29.99 "Hg10 mi
6:51 PM78 °FSunny.3 mph43%29.98 "Hg10 mi
5:51 PM80 °FSunny.N/A42%29.97 "Hg9 mi
4:51 PM81 °FSunny.6 mph41%29.97 "Hg9 mi
3:51 PM83 °FSunny.5 mph26%29.97 "Hg10 mi
2:51 PM83 °FSunny.6 mph31%29.96 "Hg9 mi
1:51 PM82 °FSunny.6 mph41%29.98 "Hg8 mi
12:51 PM79 °FSunny.6 mph47%29.99 "Hg7 mi
11:51 AM75 °FSunny.No wind60%29.98 "Hg5 mi
10:51 AM70 °FSunny.No wind73%29.98 "Hg5 mi
9:51 AM66 °FScattered clouds.5 mph84%29.98 "Hg4 mi
8:51 AM64 °FFog.5 mph87%29.97 "Hg3 mi
7:51 AM61 °FFog.3 mph93%29.96 "Hg2 mi
7:12 AM59 °FFog.No wind96%29.96 "Hg1 mi
6:48 AM58 °FFog.6 mph100%29.92 "Hg2 mi
6:31 AM59 °FFog.No wind96%29.95 "Hg2 mi
6:20 AM58 °FFog.No wind100%29.95 "Hg2 mi
5:51 AM58 °FFog.No wind97%29.91 "Hg1 mi
5:27 AM58 °FFog.3 mph97%29.93 "Hg1 mi
5:05 AM58 °FFog.No wind97%29.92 "Hg1 mi
4:51 AM58 °FFog.No wind97%29.89 "Hg1 mi
3:58 AM58 °FLight rain. Fog.3 mph100%29.89 "Hg2 mi
3:51 AM58 °FLight rain. Fog.No wind97%29.87 "Hg2 mi
2:51 AM58 °FFog.No wind97%29.86 "Hg2 mi
1:51 AM58 °FFog.No wind97%29.87 "Hg2 mi
1:38 AM58 °FFog.No wind97%29.91 "Hg2 mi
12:51 AM57 °FFog.No wind96%29.87 "Hg4 mi
12:09 AM57 °FFog.No wind96%29.91 "Hg3 mi
11:51 PM
Apr 27
57 °FFog.No wind96%29.88 "Hg4 mi
Weather by CustomWeather, © 2014

See weather overview